Location: Wolf Creek Estates Observatory
(33.4774°N, 105.6743°W)
Time: 12:03:11
(UTC-06:00)

Tiangong 2 - Visible Passes

Search period start: 25 April 2018 00:00
Search period end: 05 May 2018 00:00
Orbit: 381 x 388 km, 42.8° (Epoch: 25 April)

Date Brightness Start Highest point End Pass type
(mag) Time Alt. Az. Time Alt. Az. Time Alt. Az.
02 May 2.4 05:37:15 10° SSW 05:40:07 33° SE 05:43:00 10° ENE visible
03 May 3.3 04:40:00 15° SSE 04:40:39 16° SE 04:42:42 10° E visible
04 May 1.1 05:15:23 19° SW 05:17:28 70° SSE 05:20:37 10° ENE visible
